Zurück zum Katalog

STARLINK-30246

AktivKommunikationVLEO
NORAD 57615·PAYLOAD·🇺🇸 United States

Gestartet Aug 11, 2023 von Cape Canaveral Space Force Station

Loading…

Nächste Überflüge (nächste 24 Stunden)

TLE

AktuellSource: CelesTrak SupGP

Epoche: Sep 14, 2026, 21:02 UTC

1 57615C 23119P   26257.87687500  .00069425  00000+0  21575-2 0  2577
2 57615  42.9992  91.7014 0008385 263.7738 204.4925 15.32452123    18

Verfolge STARLINK-30246 in Echtzeit mit AllMySat

Download on the App Store